Location: Caltech
(34.1382°N, 118.1253°W)
Time: 21:59:02
(UTC-08:00)

CZ-4B DEB - Visible Passes

Search period start: 26 February 2015 00:00
Search period end: 08 March 2015 00:00
Orbit: 843 x 863 km, 98.9° (Epoch: 25 February)

Date Brightness Start Highest point End Pass type
(mag) Time Alt. Az. Time Alt. Az. Time Alt. Az.
26 Feb 6.4 03:41:20 10° N 03:42:27 16° N 03:42:27 16° N visible
27 Feb 6.4 03:30:11 10° N 03:31:22 17° N 03:31:22 17° N visible
28 Feb 6.5 03:19:06 10° NNE 03:20:16 17° NNE 03:20:16 17° NNE visible
01 Mar 6.6 03:08:02 10° NNE 03:09:10 16° NNE 03:09:10 16° NNE visible
01 Mar 6.2 04:50:34 10° NNW 04:51:15 12° NW 04:51:15 12° NW visible
02 Mar 6.7 02:57:04 10° NNE 02:58:05 15° NNE 02:58:05 15° NNE visible
02 Mar 6.1 04:38:52 10° NNW 04:40:09 14° NNW 04:40:09 14° NNW visible
03 Mar 6.8 02:46:09 10° NNE 02:46:59 14° NE 02:46:59 14° NE visible
03 Mar 6.0 04:27:22 10° NNW 04:29:03 17° NNW 04:29:03 17° NNW visible
04 Mar 7.0 02:35:19 10° NE 02:35:53 13° NE 02:35:53 13° NE visible
04 Mar 5.9 04:15:57 10° N 04:17:57 20° NNW 04:17:57 20° NNW visible
05 Mar 7.1 02:24:36 10° NE 02:24:48 11° NE 02:24:48 11° NE visible
05 Mar 5.8 04:04:37 10° N 04:06:51 23° NNW 04:06:51 23° NNW visible
06 Mar 5.7 03:53:21 10° N 03:55:45 25° N 03:55:45 25° N visible
07 Mar 5.6 03:42:08 10° N 03:44:40 28° N 03:44:40 28° N visible
